Back to catalog

ARIANE 5 DEB

SYLDA

AliveHEO
NORAD 45247·DEBRIS·🇫🇷 France

Launched Feb 18, 2020 from Guiana Space Centre

Loading…

Next Passes (next 24 hours)

TLE

FreshSource: Space-Track

Epoch: Sep 14, 2026, 10:33 UTC

1 45247U 20013C   26257.43968767  .00018712  00000-0  38622-2 0  9992
2 45247   5.5799  97.9721 6208492 212.7203  86.1627  3.73404192 67468

Track ARIANE 5 DEB in real time with AllMySat

Download on the App Store